Weather reports worldwide

Advertisment
Priekuli, Latvia (26335): temperature & dewpoint: 06.11.2019 07:00:00 - 12.11.2019 07:00:00 (EET)Priekuli, Latvia (26335): wind speed & gusts: 06.11.2019 07:00:00 - 12.11.2019 07:00:00 (EET)Priekuli, Latvia (26335): wind direction: 06.11.2019 07:00:00 - 12.11.2019 07:00:00 (EET)Priekuli, Latvia (26335): reduced air pressure: 06.11.2019 07:00:00 - 12.11.2019 07:00:00 (EET)Priekuli, Latvia (26335): visibility: 06.11.2019 07:00:00 - 12.11.2019 07:00:00 (EET)Priekuli, Latvia (26335): precipitation: 06.11.2019 07:00:00 - 12.11.2019 07:00:00 (EET)
Date & Time tt [°C] td [°C] ff [km/h] ff [kn] fx [km/h] fx [kn] dd ppp [hPa] vv [km] rr [mm]
12.11.2019 07:00:00 - - - - - - - - - -
12.11.2019 06:00:00 2,5 1,6 7 4 11 6 - 1018,4 20 0,0
12.11.2019 05:00:00 3,5 2,1 7 4 9 5 SE 1018,4 20 0,0
12.11.2019 04:00:00 4,3 2,2 7 4 14 8 - 1018,0 20 0,0
12.11.2019 03:00:00 4,1 2,6 7 4 14 8 - 1017,6 20 0,0
12.11.2019 02:00:00 4,1 2,7 11 6 15 8 SSW 1017,4 20 0,0
12.11.2019 01:00:00 4,1 3,2 11 6 18 10 - 1016,6 20 0,0
12.11.2019 00:00:00 4,1 3,5 7 4 22 12 - 1016,2 20 0,0
11.11.2019 23:00:00 4,4 3,9 7 4 20 11 SSW 1015,6 20 0,0
11.11.2019 22:00:00 4,6 4,2 11 6 18 10 - 1015,0 11 0,0
11.11.2019 21:00:00 4,6 4,2 7 4 14 8 - 1014,4 - 0,0
11.11.2019 20:00:00 4,6 4,1 11 6 14 7 WSW 1014,2 20 0,0
11.11.2019 19:00:00 4,8 4,4 11 6 18 10 - 1013,6 - 0,0
11.11.2019 18:00:00 5,0 4,4 11 6 14 8 - 1013,2 - 0,0
11.11.2019 17:00:00 5,1 4,1 7 4 11 6 WSW 1013,1 18 0,0
11.11.2019 16:00:00 5,3 4,1 7 4 14 8 - 1012,5 - 0,0
11.11.2019 15:00:00 5,4 4,0 7 4 14 8 - 1012,1 - 0,0
11.11.2019 14:00:00 5,3 4,4 7 4 15 8 - 1011,7 20 0,0
11.11.2019 13:00:00 5,6 3,8 4 2 14 8 - 1011,7 - 0,0
11.11.2019 12:00:00 5,5 3,8 11 6 14 8 - 1011,7 - 0,0
11.11.2019 11:00:00 5,1 4,0 7 4 9 5 NW 1012,0 20 0,0
11.11.2019 10:00:00 5,1 4,4 4 2 18 10 - 1011,5 11 0,0
11.11.2019 09:00:00 5,1 5,0 7 4 18 10 - 1011,4 3,7 0,0
11.11.2019 08:00:00 5,2 5,0 7 4 14 8 WSW 1011,4 5 0,1
11.11.2019 07:00:00 5,1 5,0 11 6 14 8 - 1011,1 3,9 0,0
11.11.2019 06:00:00 5,2 4,5 11 6 18 10 - 1011,1 20 0,0
11.11.2019 05:00:00 5,4 4,5 11 6 18 10 SSW 1011,6 20 0,0
11.11.2019 04:00:00 5,6 4,7 7 4 14 8 - 1011,5 18 0,0
11.11.2019 03:00:00 5,7 4,5 7 4 14 8 - 1011,7 15 0,0
11.11.2019 02:00:00 6,0 4,3 7 4 13 7 SSW 1012,0 20 0,0
11.11.2019 01:00:00 6,1 4,4 11 6 18 10 - 1011,8 20 0,0
11.11.2019 00:00:00 6,4 5,0 7 4 18 10 - 1011,8 20 0,0
10.11.2019 23:00:00 6,8 5,2 11 6 19 11 WSW 1012,0 20 0,0
10.11.2019 22:00:00 7,3 5,1 11 6 29 16 - 1011,9 20 0,0
10.11.2019 21:00:00 7,5 5,3 11 6 32 18 - 1011,5 20 0,0
10.11.2019 20:00:00 7,9 5,0 14 8 31 17 SW 1011,5 20 0,0
10.11.2019 19:00:00 8,0 5,6 18 10 36 19 - 1011,1 20 0,0
10.11.2019 18:00:00 8,2 5,7 18 10 36 19 - 1010,9 20 0,0
10.11.2019 17:00:00 8,0 5,6 22 12 35 19 S 1010,6 20 0,0
10.11.2019 16:00:00 8,1 5,6 18 10 29 16 - 1010,2 20 0,0
10.11.2019 15:00:00 8,3 5,6 18 10 29 16 - 1009,8 20 0,0
10.11.2019 14:00:00 8,8 5,6 18 10 29 16 S 1009,9 20 0,0
10.11.2019 13:00:00 9,1 5,3 18 10 32 18 - 1009,7 20 0,0
10.11.2019 12:00:00 9,5 6,0 18 10 32 18 - 1009,3 20 0,0
10.11.2019 11:00:00 9,7 7,2 18 10 30 16 SSW 1009,2 18 0,0
10.11.2019 10:00:00 9,9 7,5 18 10 32 18 - 1008,7 17 0,0
10.11.2019 09:00:00 10,1 8,5 18 10 32 18 - 1008,5 13 0,0
10.11.2019 08:00:00 10,0 8,8 14 8 26 14 S 1008,2 12 0,3
10.11.2019 07:00:00 10,1 9,0 18 10 29 16 - 1007,8 12 0,0
10.11.2019 06:00:00 10,2 9,0 18 10 29 16 - 1007,3 9 0,0
10.11.2019 05:00:00 9,8 8,5 18 10 26 14 S 1008,0 10 0,0
10.11.2019 04:00:00 9,6 8,0 18 10 25 14 - 1007,8 - 0,0
10.11.2019 03:00:00 9,5 8,1 14 8 25 14 - 1008,1 - 0,0
10.11.2019 02:00:00 9,4 8,1 14 8 24 13 S 1008,5 14 0,0
10.11.2019 01:00:00 9,3 8,1 14 8 25 14 - 1008,7 - 0,0
10.11.2019 00:00:00 9,0 7,9 11 6 22 12 - 1008,9 - 0,0
09.11.2019 23:00:00 8,4 7,9 7 4 16 8 SSE 1009,2 12 0,1
09.11.2019 22:00:00 8,2 7,9 7 4 18 10 - 1009,4 18 0,0
09.11.2019 21:00:00 7,9 7,6 7 4 14 8 - 1009,3 18 0,0
09.11.2019 20:00:00 7,5 7,4 7 4 12 6 SSE 1009,4 11 0,0
09.11.2019 19:00:00 7,3 7,2 11 6 18 10 - 1009,7 9 0,0
09.11.2019 18:00:00 7,0 7,0 7 4 14 8 - 1009,1 6 0,0
09.11.2019 17:00:00 7,0 6,5 7 4 14 8 SE 1009,3 15 0,0
09.11.2019 16:00:00 7,1 6,5 11 6 22 12 - 1009,3 16 0,0
09.11.2019 15:00:00 7,2 6,1 - - 18 10 - 1009,1 20 0,0
09.11.2019 14:00:00 7,0 6,2 11 6 16 9 E 1009,6 20 0,1
09.11.2019 13:00:00 6,7 6,1 7 4 22 12 - 1010,5 14 0,0
09.11.2019 12:00:00 6,8 6,1 7 4 22 12 - 1011,0 10 0,0
09.11.2019 11:00:00 6,9 5,8 11 6 20 11 ESE 1011,8 20 0,1
09.11.2019 10:00:00 7,0 5,8 11 6 22 12 - 1012,1 19 0,0
09.11.2019 09:00:00 6,9 6,0 11 6 18 10 - 1012,6 19 0,0
09.11.2019 08:00:00 6,6 5,9 7 4 13 7 ESE 1013,6 14 0,1
09.11.2019 07:00:00 6,7 5,8 7 4 14 8 - 1014,0 9 0,0
09.11.2019 06:00:00 6,7 5,5 7 4 18 10 - 1014,4 20 0,0
09.11.2019 05:00:00 6,8 5,2 7 4 19 11 SE 1015,3 20 0,0
09.11.2019 04:00:00 6,5 5,3 11 6 22 12 - 1015,4 20 0,0
09.11.2019 03:00:00 6,4 5,0 11 6 18 10 - 1016,4 12 0,0
09.11.2019 02:00:00 6,5 4,6 11 6 17 9 ESE 1017,0 20 0,0
09.11.2019 01:00:00 6,5 4,8 11 6 14 8 - 1017,6 20 0,0
09.11.2019 00:00:00 6,3 4,8 7 4 14 8 - 1018,0 17 0,0
08.11.2019 23:00:00 6,1 4,5 7 4 14 8 SE 1018,3 13 0,0
08.11.2019 22:00:00 6,0 4,2 7 4 18 10 - 1018,0 9 0,0
08.11.2019 21:00:00 5,8 4,0 7 4 29 16 - 1018,2 - 0,0
08.11.2019 20:00:00 5,7 3,8 11 6 30 16 SSE 1018,8 12 0,0
08.11.2019 19:00:00 5,8 3,8 14 8 25 14 - 1018,2 14 0,0
08.11.2019 18:00:00 5,4 4,0 14 8 29 16 - 1018,3 14 0,0
08.11.2019 17:00:00 5,4 3,7 11 6 28 15 SE 1018,6 20 0,0
08.11.2019 16:00:00 - - - - - - - - - -
08.11.2019 15:00:00 - - - - - - - - - -
08.11.2019 14:00:00 7,8 4,7 11 6 18 10 SE 1017,3 20 0,0
08.11.2019 13:00:00 - - - - - - - - - -
08.11.2019 12:00:00 - - - - - - - - - -
08.11.2019 11:00:00 6,2 4,6 11 6 17 9 S 1016,6 20 0,0
08.11.2019 10:00:00 - - - - - - - - - -
08.11.2019 09:00:00 - - - - - - - - - -
08.11.2019 08:00:00 3,7 2,9 11 6 14 7 S 1014,8 20 0,0
08.11.2019 07:00:00 - - - - - - - - - -
08.11.2019 06:00:00 - - - - - - - - - -
08.11.2019 05:00:00 4,0 3,1 11 6 14 8 S 1013,0 20 0,0
08.11.2019 04:00:00 - - - - - - - - - -
08.11.2019 03:00:00 - - - - - - - - - -
08.11.2019 02:00:00 4,2 3,7 11 6 15 8 S 1011,3 20 0,1
08.11.2019 01:00:00 - - - - - - - - - -
08.11.2019 00:00:00 - - - - - - - - - -
07.11.2019 23:00:00 3,7 3,6 - - - - - 1010,2 11 -
07.11.2019 22:00:00 - - - - - - - - - -
07.11.2019 21:00:00 - - - - - - - - - -
07.11.2019 20:00:00 2,5 2,4 4 2 8 4 E 1009,2 0,3 0,0
07.11.2019 19:00:00 - - - - - - - - - -
07.11.2019 18:00:00 - - - - - - - - - -
07.11.2019 17:00:00 2,4 2,3 7 4 12 6 NE 1008,1 0,5 0,1
07.11.2019 16:00:00 - - - - - - - - - -
07.11.2019 15:00:00 - - - - - - - - - -
07.11.2019 14:00:00 2,5 2,3 4 2 9 5 E 1006,9 3,6 0,0
07.11.2019 13:00:00 - - - - - - - - - -
07.11.2019 12:00:00 - - - - - - - - - -
07.11.2019 11:00:00 1,6 1,5 7 4 13 7 E 1005,4 3,2 0,3
07.11.2019 10:00:00 - - - - - - - - - -
07.11.2019 09:00:00 - - - - - - - - - -
07.11.2019 08:00:00 0,7 0,6 7 4 16 9 E 1003,2 2,2 0,0
07.11.2019 07:00:00 - - - - - - - - - -
07.11.2019 06:00:00 - - - - - - - - - -
07.11.2019 05:00:00 0,9 0,4 7 4 13 7 E 1001,2 20 0,0
07.11.2019 04:00:00 - - - - - - - - - -
07.11.2019 03:00:00 - - - - - - - - - -
07.11.2019 02:00:00 1,0 0,5 11 6 19 10 E 1000,1 14 1,3
07.11.2019 01:00:00 - - - - - - - - - -
07.11.2019 00:00:00 - - - - - - - - - -
06.11.2019 23:00:00 1,3 0,7 14 8 24 13 E 999,1 20 0,0
06.11.2019 22:00:00 - - - - - - - - - -
06.11.2019 21:00:00 - - - - - - - - - -
06.11.2019 20:00:00 1,7 1,2 14 8 22 12 E 998,7 20 0,0
06.11.2019 19:00:00 - - - - - - - - - -
06.11.2019 18:00:00 - - - - - - - - - -
06.11.2019 17:00:00 1,7 1,1 11 6 26 14 E 998,6 20 0,0
06.11.2019 16:00:00 - - - - - - - - - -
06.11.2019 15:00:00 - - - - - - - - - -
06.11.2019 14:00:00 2,0 1,5 11 6 23 12 E 998,1 5 0,0
06.11.2019 13:00:00 - - - - - - - - - -
06.11.2019 12:00:00 - - - - - - - - - -
06.11.2019 11:00:00 1,6 1,0 11 6 21 11 E 998,3 20 0,0
06.11.2019 10:00:00 - - - - - - - - - -
06.11.2019 09:00:00 - - - - - - - - - -
06.11.2019 08:00:00 0,8 0,6 11 6 19 10 ENE 997,5 4,2 0,0
06.11.2019 07:00:00 - - - - - - - - - -

tt = temperature
td = dewpoint
ff = wind speed
fx = gusts
dd = wind direction
ppp = reduced air pressure
vv = visibility
rr = precipitation

Next stations